Miscellaneous Local Product
Issued by NWS North Platte, NE

Home | Current Version | Previous Version | Text Only | Print | Product List | Glossary On
Versions: 1 2 3 4 5 6 7 8 9 10 11 12 13 14 15 16 17 18 19 20 21 22 23 24 25 26 27 28 29 30 31 32 33 34 35 36 37 38 39 40 41 42 43 44 45 46 47 48 49 50
000
AXUS43 KLBF 271710
MISLBF


WESTERN AND NORTH CENTRAL NEBRASKA HOURLY WEATHER ROUNDUP
NATIONAL WEATHER SERVICE NORTH PLATTE NE
1200 PM CDT WED JUL 27 2016

NOTE: "FAIR" INDICATES FEW OR NO CLOUDS BELOW 12,000 FEET WITH NO
SIGNIFICANT WEATHER AND/OR OBSTRUCTIONS TO VISIBILITY.

NOTE: STATIONS NOT REPORTING VARIABLES SUCH AS SKY/WEATHER OR
PRESSURE ARE PROVIDED BY RAWS AND APRS NETWORKS AND ARE NOT UNDER
NATIONAL WEATHER SERVICE QUALITY CONTROL.

...OBSERVATIONS IN AND NEAR THE EASTERN PANHANDLE OF NEBRASKA...

CITY           SKY/WX    TMP DP  RH WIND       PRES   REMARKS
PINE RIDGE     CLOUDY    73  59  61 CALM      30.11R
CHADRON        CLOUDY    81  56  42 W7        30.08S
ALLIANCE       MOSUNNY   76  60  57 N6        30.12F
SIDNEY         SUNNY     77  58  51 S8        30.17F
CRESCENT LAKE    N/A     72  60  65 W3G13       N/A
$$

...OBSERVATIONS IN NORTHERN NEBRASKA AND FAR SOUTHERN SOUTH DAKOTA...

CITY           SKY/WX    TMP DP  RH WIND       PRES   REMARKS
WINNER         FAIR      84  66  54 N5        30.05S
VALENTINE      CLOUDY    80  61  52 MISG      30.06F
THEDFORD       MOSUNNY   80  62  54 NW9       30.12F
AINSWORTH      MOSUNNY   78  63  59 CALM      30.09F
O`NEILL        SUNNY     79  58  49 SW5       30.08S
ORD            SUNNY     78  63  59 N6        30.08F
BROKEN BOW     SUNNY     75  66  73 N7        30.12S
VALENTINE NWR    N/A     77  62  59 NW13        N/A
BUTTE            N/A     79  63  58 SW5         N/A
HALSEY           N/A     77  63  61 NW6G17      N/A
$$

...OBSERVATIONS IN SOUTHWEST NEBRASKA AND FAR NORTHEAST COLORADO...

CITY           SKY/WX    TMP DP  RH WIND       PRES   REMARKS
WRAY           FAIR      79  59  50 SE3       30.15F
HOLYOKE        FAIR      81  63  54 CALM      30.14S
IMPERIAL       SUNNY     79  61  53 CALM      30.13F
OGALLALA       MOSUNNY   78  59  52 NE13G18   30.14S
NORTH PLATTE   CLOUDY    78  63  59 NW6       30.12F
MCCOOK         CLOUDY    75  63  66 N9        30.13R THUNDER
LEXINGTON      CLOUDY    79  67  66 NW7       30.11R
STAPLETON        N/A     76  65  67 N3          N/A
GOTHENBURG       N/A     73  61  65 NW6         N/A
CALLAWAY         N/A     71  67  86 NW14        N/A
$$

...OBSERVATIONS IN CENTRAL LINCOLN COUNTY AREA...

CITY           SKY/WX    TMP DP  RH WIND       PRES   REMARKS
N.P. AIRPORT   CLOUDY    78  63  59 NW6       30.12F
N.P. DOWNTOWN    N/A     78  62  57 NW8         N/A
N.P. SOUTHEAST   N/A     78  61  56 N6G13       N/A
N.P. HILLCREST   N/A     78  60  54 N12G20      N/A
$$

...SOME OBSERVATIONS FROM AROUND THE REGION...

CITY           SKY/WX    TMP DP  RH WIND       PRES   REMARKS
DENVER         MOSUNNY   78  53  41 N9        30.23R
LARAMIE        SUNNY     76  36  23 VRB6      30.32S
CHEYENNE       SUNNY     74  53  48 NE8       30.27S
SCOTTSBLUFF    SUNNY     75  60  59 VRB7      30.16S
RAPID CITY     CLOUDY    76  62  62 E9        30.10R
BISMARCK       CLOUDY    74  64  71 E7        30.12R
PIERRE         SUNNY     82  63  52 NE16G24   30.04S
SIOUX FALLS    PTSUNNY   82  69  64 W9        30.02R
OMAHA          MOSUNNY   85  67  54 SW10      29.98S
GRAND ISLAND   SUNNY     79  63  57 NE6       30.08R
KANSAS CITY    PTSUNNY   84  70  62 CALM      30.01R
WICHITA        PTSUNNY   86  72  62 VRB3      29.99S HX  92
OKLAHOMA CITY  MOSUNNY   91  74  57 CALM      30.01S HX 100
DALLAS         PTSUNNY   92  71  50 SW8       29.96S HX  98
AMARILLO       SUNNY     89  64  43 SE6       30.12R HX  90
DODGE CITY     CLOUDY    84  69  60 SW12      30.05R
HAYS           CLOUDY    82  64  54 S7        30.05S
GOODLAND       MOSUNNY   77  65  66 CALM      30.14R
$$




USA.gov is the U.S. government's official web portal to all federal, state and local government web resources and services.